Regional Weather Roundup
Issued by NWS

Home | Current Version | Previous Version | Text Only | Print | Product List | Glossary Off
Versions: 1 2 3 4 5 6 7 8 9 10 11 12 13 14 15 16 17 18 19 20 21 22 23 24 25 26 27 28 29 30 31 32 33 34 35 36 37 38 39 40 41 42 43 44 45 46 47 48 49 50

000
ASUS45 KCYS 091210
RWRWY

WYOMING REGIONAL WEATHER ROUNDUP
NATIONAL WEATHER SERVICE CHEYENNE WY
500 AM MST TUE FEB 09 2016

NOTE:  "FAIR" INDICATES FEW OR NO CLOUDS BELOW 12,000 FEET
WITH NO SIGNIFICANT WEATHER AND/OR OBSTRUCTIONS TO VISIBILITY.

WYZ001-091300-
YELLOWSTONE NATIONAL PARK

CITY           SKY/WX    TMP DP  RH WIND       PRES   REMARKS
LK YELLOWSTONE   N/A     16  13  88 CALM      30.56F
6HR MIN TEMP:   9; 6HR MAX TEMP:  16;

W YELLOWSTONE  NOT AVBL

$$
WYZ002>013-054>058-071-098>099-091300-
NORTHERN WYOMING

CITY           SKY/WX    TMP DP  RH WIND       PRES   REMARKS
JACKSON        FAIR       3   1  92 N7        30.59R WCI  -9
CODY           FAIR      30  18  59 NW3       30.34S
GREYBULL       FAIR      19  15  84 CALM      30.39R
6HR MIN TEMP:  18; 6HR MAX TEMP:  24;

WORLAND        FAIR      16  14  92 CALM      30.37S
6HR MIN TEMP:  16; 6HR MAX TEMP:  24;

SHERIDAN       CLEAR     41  27  56 W7        30.27F
6HR MIN TEMP:  32; 6HR MAX TEMP:  40;

BUFFALO        FAIR      41  26  55 N7        30.29S
6HR MIN TEMP:  40; 6HR MAX TEMP:  43;

GILLETTE       FAIR      33  27  78 W13       30.26S WCI  24
6HR MIN TEMP:  31; 6HR MAX TEMP:  36;

HULETT         FAIR      32  27  80 SW6       30.25S WCI  26
NEWCASTLE      FAIR      30  23  74 NW13      30.24S WCI  20

$$
WYZ014>020-022>026-101>103-091300-
CENTRAL WYOMING

CITY           SKY/WX    TMP DP  RH WIND       PRES   REMARKS
BIG PINEY      FAIR      24  20  84 NE15      30.45F WCI  11
6HR MIN TEMP:  23; 6HR MAX TEMP:  27;

PINEDALE       FAIR      27  21  80 NW16      30.44R WCI  14
DUBOIS         FAIR      36  19  51 W30G36    30.41F WCI  22
LANDER         FAIR      22  14  71 CALM      30.37S
6HR MIN TEMP:  19; 6HR MAX TEMP:  30;

RIVERTON       FAIR      15  12  88 CALM      30.39R
6HR MIN TEMP:  15; 6HR MAX TEMP:  24;

CASPER         FAIR      30  18  60 SW18      30.34R WCI  18
6HR MIN TEMP:  28; 6HR MAX TEMP:  33;

DOUGLAS        MOCLDY    30  21  69 NW14        N/A  WCI  19
6HR MIN TEMP:  29; 6HR MAX TEMP:  33;


$$
WYZ021-027>030-104>119-091300-
SOUTHERN WYOMING

CITY           SKY/WX    TMP DP  RH WIND       PRES   REMARKS
EVANSTON       FAIR      24  17  74 S5        30.54S WCI  18
6HR MIN TEMP:  20; 6HR MAX TEMP:  29;

FORT BRIDGER   SUNNY     32  23  69 W18       30.54S WCI  20
ROCK SPRINGS   FAIR      27  21  78 SW18      30.46S WCI  14
6HR MIN TEMP:  27; 6HR MAX TEMP:  29;

DIXON          FAIR      16  11  80 E10       30.53R WCI   4
RAWLINS        FAIR      25  16  68 S6        30.43F WCI  18
6HR MIN TEMP:  25; 6HR MAX TEMP:  30;

SARATOGA       FAIR      10   9  92 SE5       30.45S WCI   2
LARAMIE        FAIR      19  13  77 E5        30.33F WCI  12
6HR MIN TEMP:  16; 6HR MAX TEMP:  28;

CHEYENNE       FAIR      36  18  48 NW15      30.28R WCI  27
6HR MIN TEMP:  31; 6HR MAX TEMP:  38;

TORRINGTON     FAIR      32  23  69 NW9       30.26R WCI  24
6HR MIN TEMP:  32; 6HR MAX TEMP:  35;

PINE BLUFFS    FAIR      36  23  60 NW22      30.27R WCI  24

$$



USA.gov is the U.S. government's official web portal to all federal, state and local government web resources and services.